This is the latest recevied weather packets stored in our database for station/object SIILIN. If no packets are shown the sender has not sent any weather packets the latest 10 day(s).
| Time | Temp. | Humidity | Pressure | Rain* | Wind** | Luminosity | Snow |
|---|---|---|---|---|---|---|---|
| 1777445210 | 2.22° C | 56% | 1026.4 hPa | - | - | - | - |
| 1777444009 | 1.67° C | 58% | 1026.4 hPa | - | - | - | - |
| 1777442809 | 1.67° C | 59% | 1026.3 hPa | - | - | - | - |
| 1777441609 | 1.11° C | 61% | 1026.3 hPa | - | - | - | - |
| 1777440409 | 1.11° C | 71% | 1026.4 hPa | - | - | - | - |
| 1777439209 | 0.56° C | 68% | 1026.4 hPa | - | - | - | - |
| 1777438009 | 0° C | 71% | 1026.4 hPa | - | - | - | - |
| 1777436809 | 0° C | 71% | 1026.2 hPa | - | - | - | - |
| 1777435609 | -0.56° C | 72% | 1026.2 hPa | - | - | - | - |
| 1777434409 | -0.56° C | 71% | 1026.1 hPa | - | - | - | - |
| 1777433209 | -0.56° C | 71% | 1026 hPa | - | - | - | - |
| 1777432010 | -0.56° C | 70% | 1025.9 hPa | - | - | - | - |
| 1777430809 | -0.56° C | 68% | 1025.8 hPa | - | - | - | - |
| 1777429610 | -0.56° C | 67% | 1025.6 hPa | - | - | - | - |
| 1777428410 | 0.56° C | 67% | 1025.5 hPa | - | - | - | - |
| 1777427209 | 0.56° C | 65% | 1025.3 hPa | - | - | - | - |
| 1777426009 | 0.56° C | 66% | 1025.2 hPa | - | - | - | - |
| 1777424809 | 0.56° C | 65% | 1025.1 hPa | - | - | - | - |
| 1777423609 | 0.56° C | 65% | 1025 hPa | - | - | - | - |
| 1777422410 | 1.11° C | 65% | 1024.8 hPa | - | - | - | - |
| 1777421209 | 1.11° C | 61% | 1024.7 hPa | - | - | - | - |
| 1777420008 | 1.11° C | 60% | 1024.7 hPa | - | - | - | - |
| 1777418808 | 1.67° C | 58% | 1024.7 hPa | - | - | - | - |
| 1777417608 | 1.67° C | 59% | 1024.6 hPa | - | - | - | - |
| 1777416409 | 2.22° C | 58% | 1024.5 hPa | - | - | - | - |
* Rain since midnight (hover to see other rain measurements)
** Current wind speed in m/s (hover to see current wind gust speed)